Location: *
(46.1866°S, 178.5290°W)
Time: 05:36:34
(UTC+00:00)

CZ-4B R/B - Pass Details

Date: 30 September 2021
Orbit: 809 x 881 km, 99.1° (Epoch: 17 October)

Event Time Altitude Azimuth Distance (km) Brightness Sun altitude
Rises 08:08:25 0° 174° (S) 3,373 6.6 -21.7°
Reaches altitude 10° 08:11:02 10° 185° (S) 2,433 6.0 -22.1°
Maximum altitude 08:15:35 29° 243° (WSW) 1,469 5.1 -22.8°
Drops below altitude 10° 08:20:08 10° 301° (WNW) 2,423 5.9 -23.5°
Sets 08:22:44 0° 311° (NW) 3,355 6.5 -23.8°
